Regional Weather Roundup
Issued by NWS

Home | Current Version | Previous Version | Text Only | Print | Product List | Glossary On
Versions: 1 2 3 4 5 6 7 8 9 10 11 12 13 14 15 16 17 18 19 20 21 22 23 24 25 26 27
000
ASUS45 KREV 280610
RWRNV
NEVADA REGIONAL WEATHER ROUNDUP
NATIONAL WEATHER SERVICE RENO NV
1100 PM PDT WED JUL 27 2016

NOTE: "FAIR" INDICATES FEW OR NO CLOUDS BELOW 12,000 FEET WITH NO
SIGNIFICANT WEATHER AND/OR OBSTRUCTIONS TO VISIBILITY.

NVZ001-003-004-280700-
WESTERN NEVADA

CITY           SKY/WX    TMP DP  RH WIND       PRES   REMARKS
RENO           CLEAR     85  38  18 NW8       30.13R
6HR MIN TEMP:  85; 6HR MAX TEMP: 101;

CARSON CITY    FAIR      82  36  18 S3        30.16S
MINDEN         FAIR      66  43  42 SE3       30.16S
PYRAMID LAKE     N/A     86 N/A N/A SW7         N/A
FALLON         CLEAR     86  34  15 NW10      30.03S
6HR MIN TEMP:  82; 6HR MAX TEMP: 106;

LOVELOCK       CLEAR     85  27  12 NW6       30.03S
6HR MIN TEMP:  84; 6HR MAX TEMP: 105;

HAWTHORNE      CLEAR     88  37  16 SW3       30.08R
$$

NVZ002-CAZ072-073-280700-
NORTHERN AND CENTRAL SIERRA

CITY           SKY/WX    TMP DP  RH WIND       PRES   REMARKS
S. LAKE TAHOE  CLEAR     63  41  44 CALM      30.30S
6HR MIN TEMP:  62; 6HR MAX TEMP:  89;

TRUCKEE        CLEAR     59  37  44 CALM      30.28S
SQUAW VLY 8000 NOT AVBL
SUSANVILLE     CLEAR     77  36  22 W6        30.12R
MAMMOTH LAKES    N/A     67  38  34 CALM      30.36R
6HR MIN TEMP:  65; 6HR MAX TEMP:  90;

BRIDGEPORT       N/A     68  34  28 VRB3      30.31S
$$

NVZ030-031-036-280700-
NORTHERN NEVADA

CITY           SKY/WX    TMP DP  RH WIND       PRES   REMARKS
ELKO           CLEAR     70  25  18 CALM      30.12S
6HR MIN TEMP:  70; 6HR MAX TEMP: 100;

WINNEMUCCA     CLEAR     72  24  16 SW6       30.06S
6HR MIN TEMP:  69; 6HR MAX TEMP: 102;

WENDOVER       CLEAR     82  28  14 CALM      30.03S
$$

NVZ035-037-280700-
CENTRAL NEVADA

CITY           SKY/WX    TMP DP  RH WIND       PRES   REMARKS
ELY            MOCLDY    71  22  15 SE6       30.21R
6HR MIN TEMP:  68; 6HR MAX TEMP:  98;

EUREKA           N/A     67  29  24 S7        30.20S
6HR MIN TEMP:  66; 6HR MAX TEMP:  99;

$$

NVZ013-014-280700-
SOUTH CENTRAL NEVADA

CITY           SKY/WX    TMP DP  RH WIND       PRES   REMARKS
TONOPAH        CLEAR     82  35  18 W7        30.15S
6HR MIN TEMP:  82; 6HR MAX TEMP: 100;

$$

NVZ017-020-022-280700-
SOUTHERN NEVADA

CITY           SKY/WX    TMP DP  RH WIND       PRES   REMARKS
LAS VEGAS      PTCLDY   102  44  14 S6        29.78F
6HR MIN TEMP: 101; 6HR MAX TEMP: 113;

N. LAS VEGAS   CLEAR    102  47  15 SW7       29.80F
6HR MIN TEMP: 101; 6HR MAX TEMP: 112;

NELLIS AFB     CLEAR    101  50  18 SE10      29.79S
6HR MIN TEMP: 101; 6HR MAX TEMP: 113;

HENDERSON      CLEAR     98  49  18 S12       29.87S
6HR MIN TEMP:  97; 6HR MAX TEMP: 112;

MERCURY        CLEAR     97  41  14 CALM      29.93S
6HR MIN TEMP:  93; 6HR MAX TEMP: 108;

$$




USA.gov is the U.S. government's official web portal to all federal, state and local government web resources and services.